Hourly Data Report for September 01, 2017

All times are specified in Local Standard Time (LST). Add 1 hour to adjust for Daylight Saving Time where and when it is observed.

COMOX A
BRITISH COLUMBIA

49°43'00.000" N
124°54'00.000" W
25.60 m
1021830
71893
YQQ

Download Data

Hourly Data (September 2017)
Hourly Data Report for September 1, 2017
Temp Definition
°C
Dew Point Temp Definition
°C
Rel Hum Definition
%
Wind Dir Definition
10's deg

Wind Spd Definition
km/h
Visibility Definition
km
Stn Press Definition
kPa
Hmdx Definition


Wind Chill Definition


Weather Definition


TIME
00:00 17.1 8.9 58 30 6 32.2 101.73     Mainly Clear
01:00 15.6 10.2 70 29 6 32.2 101.77     Mostly Cloudy
02:00 15.1 10.5 74 30 7 32.2 101.77     Mainly Clear
03:00 14.4 9.9 74   0 32.2 101.77     Clear
04:00 13.2 9.4 78   0 32.2 101.80     Clear
05:00 13.1 9.4 78   0 32.2 101.80     Mainly Clear
06:00 14.1 9.5 74 28 4 32.2 101.84     Mainly Clear
07:00 16.2 10.2 68 31 6 32.2 101.90     Mostly Cloudy
08:00 17.5 9.8 61 34 9 32.2 101.92     Mostly Cloudy
09:00 18.9 9.4 54 2 6 32.2 101.89     Mostly Cloudy
10:00 19.6 9.9 53 6 11 32.2 101.87     Mostly Cloudy
11:00 19.8 10.9 56 7 9 32.2 101.84     Mainly Clear
12:00 20.3 12.0 59 7 9 32.2 101.82     Mainly Clear
13:00 21.8 12.1 54 5 7 32.2 101.78     Mainly Clear
14:00 23.1 12.3 51 9 7 32.2 101.72 26   Mainly Clear
15:00 23.1 12.3 51 7 7 32.2 101.63 26   Mainly Clear
16:00 22.9 13.3 55 7 6 32.2 101.56 26   Mainly Clear
17:00 22.1 12.6 55 6 7 32.2 101.51 25   Mainly Clear
18:00 21.7 12.0 54 11 4 32.2 101.49     Mainly Clear
19:00 20.0 14.5 71 8 4 32.2 101.47     Mainly Clear
20:00 19.0 12.6 66 30 4 32.2 101.49     Mainly Clear
21:00 18.8 11.9 64   0 32.2 101.48     Mainly Clear
22:00 17.6 12.1 70 28 6 32.2 101.47     Mainly Clear
23:00 17.2 11.9 71   0 32.2 101.45     Mainly Clear

Notes on Data Quality.

Legend

  • E = Estimated
  • M = Missing
  • NA = Not Available
  • ‡ = Partner data that is not subject to review by the National Climate Archives
Date modified: